GW0758 Weather Reports


time (UTC)temp
F
wind
direction
speed
knots
gust
knots
rain 1hr
in
rain 24hr
in
rain mn
in
humidity
%
barometer
mb
20260503193044 60 275 8.7 13.9 0.00 0.00 0.00 67 1014.5
20260503191540 61 294 7.8 15.6 0.00 0.00 0.00 70 1014.5
20260503190041 60 265 4.3 11.3 0.00 0.00 0.00 71 1014.6
20260503184545 59 298 4.3 13.0 0.00 0.00 0.00 75 1014.7
20260503183041 59 239 8.7 15.6 0.00 0.00 0.00 73 1014.6
20260503181541 59 292 9.6 17.4 0.00 0.00 0.00 73 1014.6
20260503180046 58 243 7.0 13.0 0.00 0.00 0.00 74 1014.6
20260503174549 57 259 7.8 16.5 0.00 0.00 0.00 78 1014.6
20260503173051 56 239 4.3 17.4 0.00 0.00 0.00 84 1014.6
20260503171543 56 219 7.0 14.8 0.00 0.00 0.00 81 1014.5
20260503081543 54 280 5.2 10.4 0.00 0.00 0.00 82 1013.2
20260503071549 54 265 4.3 10.4 0.00 0.00 0.00 83 1013.3
20260503060107 54 279 4.3 13.0 0.00 0.00 0.00 83 1013.5
20260503054605 54 277 5.2 12.2 0.00 0.00 0.00 83 1013.7
20260503053040 54 246 6.1 11.3 0.00 0.00 0.00 83 1013.7
20260503051539 54 284 5.2 12.2 0.00 0.00 0.00 82 1013.9
20260503050046 54 273 4.3 11.3 0.00 0.00 0.00 82 1013.7
20260503044545 54 300 4.3 13.9 0.00 0.00 0.00 82 1013.7
20260503043048 54 294 6.1 13.9 0.00 0.00 0.00 82 1013.6
20260503041543 54 250 7.8 13.9 0.00 0.00 0.00 82 1013.4
20260503040053 54 248 7.8 13.0 0.00 0.00 0.00 82 1013.4
20260503034549 54 275 9.6 15.6 0.00 0.00 0.00 81 1013.4
20260503033049 54 279 9.6 18.2 0.00 0.00 0.00 82 1013.3
20260503031544 54 281 9.6 15.6 0.00 0.00 0.00 82 1013.2
20260503030041 54 292 7.8 16.5 0.00 0.00 0.00 82 1012.9
20260503024550 55 288 9.6 14.8 0.00 0.00 0.00 81 1012.9
20260503023055 55 302 7.0 14.8 0.00 0.00 0.00 80 1012.8
20260503021550 55 314 7.0 13.9 0.00 0.00 0.00 80 1012.9
20260503020049 56 269 10.4 17.4 0.00 0.00 0.00 79 1013.0
20260503014544 56 307 10.4 17.4 0.00 0.00 0.00 77 1012.9
20260503013041 56 306 7.8 17.4 0.00 0.00 0.00 77 1013.1
20260503011546 57 325 7.8 15.6 0.00 0.00 0.00 76 1013.1
20260503010045 57 284 7.8 17.4 0.00 0.00 0.00 76 1013.2
20260503004557 57 255 7.8 15.6 0.00 0.00 0.00 75 1013.2
20260503003100 58 268 8.7 14.8 0.00 0.00 0.00 72 1013.3
20260503001601 58 234 11.3 17.4 0.00 0.00 0.00 72 1013.3
20260503000041 59 288 8.7 16.5 0.00 0.00 0.00 73 1013.3
20260502234539 59 304 7.8 16.5 0.00 0.00 0.00 71 1013.4
20260502233048 60 292 10.4 15.6 0.00 0.00 0.00 71 1013.6
20260502231545 60 257 10.4 21.7 0.00 0.00 0.00 71 1013.7
20260502230045 59 301 8.7 20.0 0.00 0.00 0.00 72 1013.9
20260502224541 59 250 8.7 20.9 0.00 0.00 0.00 71 1014.0
20260502223048 59 233 7.8 17.4 0.00 0.00 0.00 73 1014.3
20260502221540 59 300 12.2 23.5 0.00 0.00 0.00 72 1014.4
20260502220038 59 250 9.6 23.5 0.00 0.00 0.00 71 1014.5
20260502214544 59 286 8.7 17.4 0.00 0.00 0.00 72 1014.6
20260502213058 58 267 10.4 19.1 0.00 0.00 0.00 73 1014.6
20260502211543 58 310 8.7 15.6 0.00 0.00 0.00 75 1014.9
20260502210042 57 344 8.7 19.1 0.00 0.00 0.00 77 1015.2
20260502204542 57 255 7.8 16.5 0.00 0.00 0.00 77 1015.3
20260502203043 57 236 7.8 15.6 0.00 0.00 0.00 78 1015.5
20260502201543 57 292 8.7 14.8 0.00 0.00 0.00 79 1015.6
20260502200104 57 229 5.2 15.6 0.00 0.00 0.00 81 1015.7
20260502194602 56 178 5.2 16.5 0.00 0.00 0.00 82 1015.6